IZ7XUV Weather Reports


time (UTC)temp
C
wind
direction
speed
KPH
gust
KPH
rain 1hr
cm
rain 24hr
cm
rain mn
cm
humidity
%
barometer
mb
20260507010615 16 95 3.2 6.4 0.08 0.08 0.08 87 1015.1
20260507005606 16 122 6.4 11.3 0.08 0.08 0.08 86 1015.1
20260507004556 16 151 4.8 9.7 0.05 0.05 0.05 86 1015.2
20260507003546 17 117 3.2 9.7 0.03 0.03 0.03 85 1015.1
20260507002536 17 142 1.6 3.2 0.03 0.03 0.03 84 1015.2
20260507001526 17 245 0.0 3.2 0.03 0.03 0.03 82 1015.2
20260507000516 17 218 1.6 4.8 0.00 0.00 0.00 80 1015.1
20260506235607 17 147 1.6 4.8 0.00 0.00 0.00 77 1015.0
20260506234637 17 290 0.0 1.6 0.00 0.00 0.00 74 1014.9
20260506233607 18 246 0.0 1.6 0.00 0.00 0.00 72 1015.0
20260506232537 18 217 3.2 6.4 0.00 0.00 0.00 71 1015.1
20260506231547 18 227 1.6 4.8 0.00 0.00 0.00 69 1015.2
20260506230517 18 225 1.6 6.4 0.00 0.00 0.00 68 1015.0
20260506225608 18 252 4.8 12.9 0.00 0.00 0.00 68 1015.0
20260506224600 18 256 3.2 12.9 0.00 0.00 0.00 68 1015.0
20260506223608 18 227 4.8 11.3 0.00 0.00 0.00 69 1015.0
20260506222538 18 222 4.8 6.4 0.00 0.00 0.00 69 1014.9
20260506221528 18 219 6.4 12.9 0.00 0.00 0.00 71 1015.0
20260506220517 18 259 4.8 17.7 0.00 0.00 0.00 74 1015.0
20260506215610 18 196 9.7 14.5 0.00 0.00 0.00 76 1015.1
20260506214559 18 185 9.7 14.5 0.00 0.00 0.00 76 1015.1
20260506213549 18 165 9.7 16.1 0.00 0.00 0.00 76 1015.2
20260506212539 18 200 11.3 24.1 0.00 0.00 0.00 76 1015.2
20260506211529 18 210 9.7 24.1 0.00 0.00 0.00 76 1015.1
20260506210539 18 193 9.7 27.4 0.00 0.00 0.00 76 1015.0
20260506205611 18 216 11.3 22.5 0.00 0.00 0.00 77 1014.8
20260506204600 18 195 9.7 22.5 0.00 0.00 0.00 77 1014.7
20260506203550 18 195 11.3 17.7 0.00 0.00 0.00 77 1014.7
20260506202540 18 185 9.7 17.7 0.00 0.00 0.00 77 1014.7
20260506201550 17 186 11.3 16.1 0.00 0.00 0.00 77 1014.5
20260506200520 18 179 6.4 20.9 0.00 0.00 0.00 77 1014.5
20260506195631 18 194 6.4 16.1 0.00 0.00 0.00 77 1014.3
20260506194601 18 173 9.7 17.7 0.00 0.00 0.00 76 1014.2
20260506193551 18 191 6.4 14.5 0.00 0.00 0.00 76 1014.0
20260506192541 18 209 8.0 20.9 0.00 0.00 0.00 76 1013.9
20260506191551 18 167 9.7 17.7 0.00 0.00 0.00 76 1014.0
20260506190521 18 180 11.3 20.9 0.00 0.00 0.00 76 1013.9
20260506185612 18 159 6.4 16.1 0.00 0.00 0.00 76 1013.8
20260506184602 18 191 8.0 20.9 0.00 0.00 0.00 76 1013.8
20260506183552 18 168 8.0 17.7 0.00 0.00 0.00 75 1014.0
20260506182542 18 148 9.7 17.7 0.00 0.00 0.00 75 1013.9
20260506181532 18 157 14.5 25.7 0.00 0.00 0.00 75 1013.9
20260506180522 18 171 8.0 22.5 0.00 0.00 0.00 75 1013.9
20260506175613 19 160 9.7 22.5 0.00 0.00 0.00 74 1013.8
20260506174604 19 173 8.0 20.9 0.00 0.00 0.00 73 1013.9
20260506173613 19 163 11.3 24.1 0.00 0.00 0.00 73 1013.8
20260506172543 20 202 8.0 16.1 0.00 0.00 0.00 73 1013.9
20260506171533 20 177 9.7 16.1 0.00 0.00 0.00 72 1013.9
20260506170523 20 169 6.4 16.1 0.00 0.00 0.00 71 1013.9
20260506165614 20 132 6.4 16.1 0.00 0.00 0.00 70 1013.8
20260506164604 20 180 11.3 22.5 0.00 0.00 0.00 69 1013.8
20260506163554 21 206 8.0 17.7 0.00 0.00 0.00 67 1013.6
20260506162544 21 200 12.9 20.9 0.00 0.00 0.00 66 1013.6
20260506161534 22 184 8.0 14.5 0.00 0.00 0.00 65 1013.6
20260506160524 22 134 9.7 20.9 0.00 0.00 0.00 65 1013.6
20260506155616 22 157 8.0 14.5 0.00 0.00 0.00 64 1013.9
20260506154625 22 149 8.0 14.5 0.00 0.00 0.00 64 1013.7
20260506153555 22 144 6.4 16.1 0.00 0.00 0.00 64 1013.7
20260506152605 22 130 8.0 16.1 0.00 0.00 0.00 63 1013.6
20260506151535 23 165 9.7 17.7 0.00 0.00 0.00 62 1013.6
20260506150525 23 112 8.0 16.1 0.00 0.00 0.00 62 1013.6
20260506145616 23 137 8.0 20.9 0.00 0.00 0.00 61 1013.5
20260506144606 23 155 6.4 16.1 0.00 0.00 0.00 60 1013.5
20260506143556 23 143 6.4 14.5 0.00 0.00 0.00 59 1013.8
20260506142546 23 119 8.0 14.5 0.00 0.00 0.00 59 1013.7
20260506141535 23 161 8.0 14.5 0.00 0.00 0.00 59 1013.8
20260506140525 23 161 8.0 16.1 0.00 0.00 0.00 60 1013.9
20260506135516 23 141 4.8 20.9 0.00 0.00 0.00 60 1013.8
20260506134607 23 167 9.7 22.5 0.00 0.00 0.00 60 1013.9
20260506133557 22 213 8.0 22.5 0.00 0.00 0.00 62 1014.1
20260506132607 23 154 8.0 17.7 0.00 0.00 0.00 61 1014.0
20260506131537 23 194 11.3 20.9 0.00 0.00 0.00 62 1014.3
20260506130527 23 197 9.7 17.7 0.00 0.00 0.00 62 1014.2
20260506125517 23 198 6.4 16.1 0.00 0.00 0.00 60 1014.3
20260506124608 23 148 6.4 11.3 0.00 0.00 0.00 61 1014.3
20260506123558 23 155 6.4 16.1 0.00 0.00 0.00 62 1014.4
20260506122548 22 168 8.0 12.9 0.00 0.00 0.00 62 1014.4
20260506121538 22 129 4.8 11.3 0.00 0.00 0.00 62 1014.5
20260506120528 22 166 8.0 14.5 0.00 0.00 0.00 63 1014.5
20260506115518 22 135 6.4 12.9 0.00 0.00 0.00 63 1014.4
20260506114630 22 145 6.4 14.5 0.00 0.00 0.00 63 1014.4
20260506113559 22 141 6.4 14.5 0.00 0.00 0.00 63 1014.5
20260506112549 22 172 6.4 14.5 0.00 0.00 0.00 63 1014.5
20260506111539 22 122 8.0 14.5 0.00 0.00 0.00 63 1014.4
20260506110529 22 124 6.4 12.9 0.00 0.00 0.00 62 1014.2
20260506105519 23 105 6.4 14.5 0.00 0.00 0.00 61 1014.3
20260506104610 23 167 6.4 11.3 0.00 0.00 0.00 58 1014.6
20260506103600 23 200 9.7 16.1 0.00 0.00 0.00 57 1014.7
20260506102550 23 189 6.4 17.7 0.00 0.00 0.00 58 1014.9
20260506101540 22 194 8.0 20.9 0.00 0.00 0.00 60 1015.0
20260506100550 23 211 9.7 16.1 0.00 0.00 0.00 60 1015.0
20260506095520 23 221 8.0 17.7 0.00 0.00 0.00 58 1015.0
20260506094611 24 193 9.7 17.7 0.00 0.00 0.00 55 1015.0
20260506093601 23 187 6.4 17.7 0.00 0.00 0.00 58 1015.0
20260506092551 23 212 9.7 22.5 0.00 0.00 0.00 56 1015.0
20260506091601 23 236 12.9 20.9 0.00 0.00 0.00 55 1015.0
20260506090531 24 232 8.0 16.1 0.00 0.00 0.00 55 1014.9
20260506085521 23 221 4.8 12.9 0.00 0.00 0.00 58 1014.8
20260506084612 22 223 9.7 17.7 0.00 0.00 0.00 61 1015.0
20260506083602 22 214 8.0 12.9 0.00 0.00 0.00 60 1014.8
20260506082552 22 213 4.8 11.3 0.00 0.00 0.00 61 1014.6
20260506081545 22 205 6.4 12.9 0.00 0.00 0.00 64 1014.6
20260506080532 21 197 9.7 16.1 0.00 0.00 0.00 66 1014.6
20260506072613 20 188 6.4 12.9 0.00 0.00 0.00 72 1014.6
20260506071543 20 166 6.4 11.3 0.00 0.00 0.00 73 1014.8
20260506070553 19 125 3.2 11.3 0.00 0.00 0.00 73 1014.9
20260506061544 18 227 3.2 6.4 0.00 0.00 0.00 75 1014.8
20260506060534 18 188 1.6 6.4 0.00 0.00 0.00 75 1014.8
20260506050534 16 0.0 1.6 0.00 0.00 0.00 84 1014.4
20260506044616 15 225 1.6 3.2 0.00 0.00 0.00 85 1014.5
20260506043606 15 276 0.0 1.6 0.00 0.00 0.00 86 1014.6
20260506042556 15 228 1.6 3.2 0.00 0.00 0.00 86 1014.6
20260506041546 15 204 1.6 3.2 0.00 0.00 0.00 86 1014.4
20260506040536 15 186 1.6 4.8 0.00 0.00 0.00 86 1014.4
20260506035527 15 0.0 0.0 0.00 0.00 0.00 86 1014.4
20260506034516 15 238 1.6 3.2 0.00 0.00 0.00 86 1014.4
20260506033607 15 214 1.6 3.2 0.00 0.00 0.00 85 1014.4
20260506032557 15 167 3.2 4.8 0.00 0.00 0.00 85 1014.4
20260506031547 15 0.0 0.0 0.00 0.00 0.00 85 1014.6
20260506030537 15 268 1.6 1.6 0.00 0.00 0.00 85 1014.6
20260506025527 15 0.0 1.6 0.00 0.00 0.00 85 1014.7
20260506024517 15 244 0.0 3.2 0.00 0.00 0.00 85 1014.7
20260506023608 15 222 1.6 4.8 0.00 0.00 0.00 85 1014.6
20260506022558 15 237 1.6 4.8 0.00 0.00 0.00 85 1014.7
20260506021548 15 248 1.6 3.2 0.00 0.00 0.00 85 1014.7
20260506020538 15 235 0.0 3.2 0.00 0.00 0.00 84 1014.8
20260506015528 16 0.0 0.0 0.00 0.00 0.00 84 1014.8
20260506014517 15 0.0 0.0 0.00 0.00 0.00 85 1015.0
20260506013608 16 0.0 0.0 0.00 0.00 0.00 85 1014.8
20260506012559 16 0.0 0.0 0.00 0.00 0.00 85 1014.9
20260506011548 16 0.0 0.0 0.00 0.00 0.00 84 1014.9